Regional Weather Roundup
Issued by NWS Charleston, WV

Home | Current Version | Previous Version | Text Only | Print | Product List | Glossary On
Versions: 1 2 3 4 5 6 7 8 9 10 11 12 13 14 15 16 17 18 19 20 21 22 23 24 25 26 27
000
ASUS41 KRLX 201610
RWRRLX
West Virginia Regional Weather Roundup
National Weather Service Charleston WV
1200 PM EDT SUN APR 20 2014

Note: "fair" indicates few or no clouds below 12,000 feet with no
significant weather and/or obstructions to visibility.

WVZ003-201700-
Northern Panhandle of West Virginia

CITY           SKY/WX    TMP DP  RH WIND       PRES   REMARKS
WHEELING       SUNNY     62  25  24 SE10      30.31F
$$

WVZ009-201700-
Northwest West Virginia

CITY           SKY/WX    TMP DP  RH WIND       PRES   REMARKS
PARKERSBURG    SUNNY     67  30  25 NE5       30.31F
$$

WVZ006-201700-
Western West Virginia

CITY           SKY/WX    TMP DP  RH WIND       PRES   REMARKS
HUNTINGTON     SUNNY     67  36  31 SE7       30.27F
$$

WVZ015-201700-
West Central West Virginia

CITY           SKY/WX    TMP DP  RH WIND       PRES   REMARKS
CHARLESTON     MOSUNNY   69  30  23 VRB5      30.28F
$$

WVZ031-201700-
North Central West Virginia

CITY           SKY/WX    TMP DP  RH WIND       PRES   REMARKS
CLARKSBURG     SUNNY     63  27  25 S8        30.32F
MORGANTOWN     SUNNY     65  24  21 SE9       30.33F
$$

WVZ035-042-045-201700-
South Central West Virginia

CITY           SKY/WX    TMP DP  RH WIND       PRES   REMARKS
BECKLEY        SUNNY     59  29  31 SE12      30.32S
BLUEFIELD      SUNNY     61  25  25 E8G16     30.32F
LEWISBURG      MOSUNNY   57  24  27 E3        30.33F
$$

WVZ047-201700-
Northern Mountains of West Virginia

CITY           SKY/WX    TMP DP  RH WIND       PRES   REMARKS
ELKINS         SUNNY     65  21  18 CALM      30.31F
$$

WVZ052-201700-
Eastern Panhandle of West Virginia

CITY           SKY/WX    TMP DP  RH WIND       PRES   REMARKS
MARTINSBURG    SUNNY     59  29  31 SE9       30.42F
PETERSBURG     SUNNY     64  36  35 CALM      30.38F
$$



USA.gov is the U.S. government's official web portal to all federal, state and local government web resources and services.